FO-29
1 24278U 96046B 14198.01582490 -.00000040 00000-0 -35703-5 0 4219
2 24278 098.5124 207.7601 0349991 220.0979 163.5313 13.53026469884709
SO-33
1 25509U 98061B 14198.43287464 .00000153 00000-0 19437-4 0 7957
2 25509 031.4326 349.0076 0349361 019.3697 010.0319 14.29559091821484
RS-22
1 27939U 03042A 14198.82677188 .00000317 00000-0 67180-4 0 6768
2 27939 097.8118 011.4516 0013678 015.2716 344.8890 14.65250430577219
VO-52
1 28650U 05017B 14198.59920580 .00000541 00000-0 68034-4 0 7932
2 28650 097.5606 202.0460 0026185 060.6547 299.7280 14.85590762497745
HO-68
1 36122U 09072B 14198.74065461 -.00000043 00000-0 00000 0 0 7735
2 36122 100.2470 249.6840 0007518 165.4548 194.6782 13.16316728220455
AO-73
1 39444U 13066AE 14198.14031515 .00002409 00000-0 32686-3 0 1965
2 39444 097.7708 267.7745 0062657 144.5213 216.0007 14.78417733 33892
EO-79
1 40025U 14033R 14198.73660954 .00001629 00000-0 19600-3 0 757
2 40025 097.9802 093.4263 0012419 192.7576 167.3257 14.85268428 4125
UO-11
1 14781U 84021B 14198.15234528 .00000290 00000-0 43396-4 0 5478
2 14781 097.8505 257.6928 0010081 087.3643 272.8724 14.81652565632407
AO-16
1 20439U 90005D 14198.42797199 .00000032 00000-0 27904-4 0 692
2 20439 098.5070 135.1962 0011966 073.3735 038.5224 14.32368924278819
LO-19
1 20442U 90005G 14198.38797879 .00000024 00000-0 24470-4 0 74
2 20442 098.4780 135.7208 0012797 063.1431 297.1060 14.32570325279005
AO-27
1 22825U 93061C 14198.44070157 .00000023 00000-0 26258-4 0 7168
2 22825 098.6630 144.3626 0008142 201.5795 305.5454 14.29730194 85103
IO-26
1 22826U 93061D 14198.82090110 .00000009 00000-0 20673-4 0 4720
2 22826 098.6573 144.9553 0008834 193.2728 166.8223 14.30031757 85299
GO-32
1 25397U 98043D 14198.46725874 .00000005 00000-0 20894-4 0 3958
2 25397 098.4702 155.3294 0001215 164.3450 309.3036 14.23451199832173
NO-44
1 26931U 01043C 14198.46663827 -.00000041 00000-0 16159-4 0 6500
2 26931 067.0533 320.3736 0006877 281.2893 078.7435 14.30131231667936
SO-50
1 27607U 02058C 14198.28045621 .00000342 00000-0 72191-4 0 4491
2 27607 064.5569 140.6087 0051324 002.0227 358.1072 14.73826055621919
CO-55
1 27844U 03031E 14197.96982030 .00000104 00000-0 67222-4 0 9720
2 27844 098.6981 206.3123 0009881 182.2748 207.8854 14.21526994572813
CO-57
1 27848U 03031J 14197.51253795 .00000116 00000-0 73600-4 0 9128
2 27848 098.7077 205.5885 0009624 190.2067 323.3038 14.21211095572662
AO-51
1 28375U 04025K 14198.40274299 .00000043 00000-0 26029-4 0 8883
2 28375 098.2514 144.2868 0081850 260.7462 098.4464 14.41403560528253
CP3
1 31129U 07012N 14197.93798442 .00000274 00000-0 70651-4 0 7976
2 31129 097.9355 174.4169 0096784 278.2288 101.1157 14.54753326384369
CO-65
1 32785U 08021C 14198.13490733 .00000555 00000-0 70364-4 0 34
2 32785 097.6976 248.4455 0015278 092.6077 290.5194 14.85388928336476
PRISM
1 33493U 09002B 14198.77866992 .00002867 00000-0 30565-3 0 1111
2 33493 098.2507 015.7338 0017547 349.8289 010.2539 14.89624777296731
SOHLA-1
1 33496U 09002E 14198.11911718 .00000154 00000-0 33425-4 0 4039
2 33496 098.1731 319.1283 0007469 141.5095 271.1569 14.70839135293910
TISAT-1
1 36799U 10035E 14198.79441585 .00002498 00000-0 29326-3 0 3733
2 36799 098.0182 291.0235 0012624 217.0670 142.9594 14.85802538217260
STUDSAT
1 36801U 10035G 14198.82495279 .00004154 00000-0 36393-3 0 8558
2 36801 098.0355 299.7058 0009350 187.4057 287.2746 14.97231707217714
ALMASAT-1
1 38078U 12006B 14198.48632323 .00013108 00000-0 27023-3 0 844
2 38078 069.4691 346.1110 0588353 351.4355 058.9744 14.51672952126038
XATCOBEO
1 38082U 12006F 14198.86105414 .00208293 16676-4 80366-3 0 4098
2 38082 069.4309 228.5573 0164647 285.8621 129.1712 15.69168265129189
CUBEBUG-1
1 39153U 13018D 14198.75990813 .00001379 00000-0 19908-3 0 3049
2 39153 098.0419 279.0005 0016835 251.8555 108.0794 14.77792146 66077
ESTCUBE-1
1 39161U 13021C 14198.78452123 .00001049 00000-0 18288-3 0 2955
2 39161 098.0972 279.4584 0008643 304.6173 055.4188 14.70059991 64096
DUCHIFAT-1
1 40021U 14033M 14198.80202785 .00002206 00000-0 26230-3 0 776
2 40021 097.9816 093.5027 0013552 193.1174 166.9684 14.85389248 4126
NANOSATCBR1
1 40024U 14033Q 14198.66898208 .00002101 00000-0 25077-3 0 732
2 40024 097.9812 093.3586 0012377 192.3646 167.7179 14.85292748 4106
DTUSAT-2
1 40030U 14033W 14198.74351175 .00001613 00000-0 19581-3 0 757
2 40030 097.9795 093.4139 0012017 184.3334 175.7781 14.84901141 4127
ANTELSAT
1 40034U 14033AA 14198.66243214 .00001438 00000-0 23428-3 0 699
2 40034 097.9784 092.7395 0062847 108.9440 251.8567 14.71231772 4086
MET-2/21
1 22782U 93055A 14198.45410399 .00000057 00000-0 38100-4 0 1115
2 22782 082.5508 149.2921 0022560 176.5275 323.1772 13.83740475 54306
OKEAN-4
1 23317U 94066A 14198.13905350 .00000437 00000-0 47556-4 0 5902
2 23317 082.5371 039.8491 0020270 004.3792 148.2874 14.85589007 67558
NOAA-14
1 23455U 94089A 14198.43871053 .00000044 00000-0 46246-4 0 8266
2 23455 098.7778 281.3376 0008503 317.2925 150.4437 14.13978886 8223
NOAA-15
1 25338U 98030A 14198.45634891 .00000103 00000-0 62558-4 0 2610
2 25338 098.7536 192.2579 0011575 064.8003 088.1798 14.25444831841152
RESURS
1 25394U 98043A 14198.44715688 -.00000042 00000-0 -35734-6 0 7054
2 25394 098.4147 161.5483 0002146 139.8789 012.6287 14.24396519832625
FENGYUN1
1 25730U 99025A 14198.46217292 .00000610 00000-0 35672-3 0 1948
2 25730 098.9137 159.3699 0026062 028.9394 084.6083 14.11968536781794
OKEAN-0
1 25860U 99039A 14198.44118228 .00000266 00000-0 46826-4 0 3048
2 25860 098.0445 162.1311 0001042 086.9550 069.6498 14.75316490806611
NOAA-16
1 26536U 00055A 14198.38768666 -.00000114 00000-0 -36833-4 0 7594
2 26536 098.9889 258.8801 0011591 100.0860 260.1620 14.13030585712387
NOAA-17
1 27453U 02032A 14198.46130951 .00000041 00000-0 35115-4 0 6553
2 27453 098.3149 196.5813 0012955 087.5143 272.7520 14.24757226626997
NOAA-18
1 28654U 05018A 14198.50883458 .00000210 00000-0 14011-3 0 1606
2 28654 099.1498 178.6204 0014547 174.9177 292.6450 14.12038280471843
NOAA-19
1 33591U 09005A 14198.47372184 .00000193 00000-0 13040-3 0 3071
2 33591 098.9453 143.4228 0014672 038.4684 069.1964 14.11736407280265
HUBBLE
1 20580U 90037B 14198.15364390 .00000930 00000-0 51197-4 0 561
2 20580 028.4691 200.1238 0002773 246.4635 181.7850 15.05545153129233
ISS
1 25544U 98067A 14198.91739764 .00009043 00000-0 16549-3 0 7193
2 25544 051.6479 307.2495 0005352 263.2984 201.0849 15.50122865896094
CO-58
1 28895U 05043F 14197.77820934 .00000289 00000-0 66383-4 0 8208
2 28895 097.8339 038.1078 0015931 276.9896 082.9494 14.61937363464571
FALCON
1 30776U 07006E 14198.66715590 .00002651 00000-0 13479-3 0 9135
2 30776 035.4292 284.9946 0002235 214.3236 271.2776 15.16660084405362
MAST
1 31126U 07012K 14198.18060451 .00000167 00000-0 46937-4 0 944
2 31126 097.9160 177.5147 0090697 260.4752 160.4607 14.55321538384754
CAPE1
1 31130U 07012P 14198.41164810 .00000301 00000-0 76853-4 0 1018
2 31130 097.9368 174.4242 0097384 278.1584 080.8577 14.54501952384200
COMPASS
1 32787U 08021E 14198.22566011 .00000999 00000-0 11431-3 0 9860
2 32787 097.7000 250.8961 0015261 085.0928 275.2031 14.88058828336655
AAUSAT2
1 32788U 08021F 14198.75308100 .00001411 00000-0 15631-3 0 9723
2 32788 097.7010 252.4327 0014825 081.4431 278.8466 14.88781685336795
